Simultaneous Nadir Overpasses (SNOs) Predictions

Prediction of SNOs between METOP-B and TERRA Satellite Orbit:

Table of predicted SNOs for the next 14.0 days since TLE Epoch: 7/16/2022
Index Date (METOP-B) Time (METOP-B) Lat,Lon (METOP-B) SZA (METOP-B ) Date (TERRA) Time (TERRA) Lat,Lon (TERRA) SZA (TERRA ) Distance(km) Time Diff (sec)
1 07/17/2022 22:26:01 -81.15, 63.81 117.89 07/17/2022 22:26:24 -81.15, 63.82 117.88 0.30 23
2 07/17/2022 23:16:39 81.18,-127.94 62.23 07/17/2022 23:15:49 81.18,-128.10 62.20 2.63 50
3 07/20/2022 18:00:22 -81.16, 130.50 117.35 07/20/2022 18:00:31 -81.16, 130.42 117.36 1.30 9
4 07/20/2022 18:51:02 81.17, -62.04 62.68 07/20/2022 18:49:57 81.17, -61.89 62.66 2.44 65
5 07/23/2022 12:44:04 81.14, 28.96 63.12 07/23/2022 12:45:12 81.14, 28.96 63.15 0.18 68
6 07/23/2022 13:34:44 -81.16,-163.24 116.82 07/23/2022 13:34:38 -81.16,-163.10 116.80 2.60 6
7 07/26/2022 08:18:25 81.14, 95.16 63.69 07/26/2022 08:19:18 81.14, 95.30 63.73 2.43 53
8 07/26/2022 09:09:04 -81.16, -96.66 116.20 07/26/2022 09:08:44 -81.16, -96.74 116.22 1.47 20
9 07/29/2022 03:52:45 81.15, 162.07 64.40 07/29/2022 03:53:24 81.15, 161.88 64.39 3.28 39



Historial Predications of SNOs between METOP-B and TERRA
